Year,Month,Day,Hour,Minute,Value (Times are PST for temperature in C)
2013,08,21,00,00,17.70
2013,08,21,00,01,17.60
2013,08,21,00,02,17.50
2013,08,21,00,03,17.30
2013,08,21,00,04,17.20
2013,08,21,00,05,17.00
2013,08,21,00,06,16.90
2013,08,21,00,07,16.80
2013,08,21,00,08,16.70
2013,08,21,00,09,16.70
2013,08,21,00,10,16.60
2013,08,21,00,11,16.50
2013,08,21,00,12,16.40
2013,08,21,00,13,16.30
2013,08,21,00,14,16.30
2013,08,21,00,15,16.20
2013,08,21,00,16,16.10
2013,08,21,00,17,16.00
2013,08,21,00,18,16.00
2013,08,21,00,19,15.90
2013,08,21,00,20,15.90
2013,08,21,00,21,15.80
2013,08,21,00,22,15.80
2013,08,21,00,23,15.70
2013,08,21,00,24,15.70
2013,08,21,00,25,15.70
2013,08,21,00,26,15.60
2013,08,21,00,27,15.60
2013,08,21,00,28,15.60
2013,08,21,00,29,15.60
2013,08,21,00,30,15.60
2013,08,21,00,31,15.60
2013,08,21,00,32,15.60
2013,08,21,00,33,15.60
2013,08,21,00,34,15.70
2013,08,21,00,35,15.70
2013,08,21,00,36,15.80
2013,08,21,00,37,15.80
2013,08,21,00,38,15.80
2013,08,21,00,39,15.80
2013,08,21,00,40,15.80
2013,08,21,00,41,15.70
2013,08,21,00,42,15.70
2013,08,21,00,43,15.60
2013,08,21,00,44,15.60
2013,08,21,00,45,15.50
2013,08,21,00,46,15.50
2013,08,21,00,47,15.40
2013,08,21,00,48,15.40
2013,08,21,00,49,15.40
2013,08,21,00,50,15.40
2013,08,21,00,51,15.30
2013,08,21,00,52,15.30
2013,08,21,00,53,15.20
2013,08,21,00,54,15.10
2013,08,21,00,55,15.00
2013,08,21,00,56,15.00
2013,08,21,00,57,15.00
2013,08,21,00,58,14.80
2013,08,21,00,59,14.70
2013,08,21,01,00,14.60
2013,08,21,01,01,14.60
2013,08,21,01,02,14.50
2013,08,21,01,03,14.40
2013,08,21,01,04,14.40
2013,08,21,01,05,14.30
2013,08,21,01,06,14.30
2013,08,21,01,07,14.20
2013,08,21,01,08,14.20
2013,08,21,01,09,14.20
2013,08,21,01,10,14.20
2013,08,21,01,11,14.30
2013,08,21,01,12,14.30
2013,08,21,01,13,14.40
2013,08,21,01,14,14.50
2013,08,21,01,15,14.60
2013,08,21,01,16,14.80
2013,08,21,01,17,15.00
2013,08,21,01,18,15.00
2013,08,21,01,19,15.10
2013,08,21,01,20,15.30
2013,08,21,01,21,15.40
2013,08,21,01,22,15.60
2013,08,21,01,23,15.70
2013,08,21,01,24,15.70
2013,08,21,01,25,15.80
2013,08,21,01,26,15.80
2013,08,21,01,27,15.80
2013,08,21,01,28,15.80
2013,08,21,01,29,15.80
2013,08,21,01,30,15.70
2013,08,21,01,31,15.70
2013,08,21,01,32,15.70
2013,08,21,01,33,15.60
2013,08,21,01,34,15.50
2013,08,21,01,35,15.50
2013,08,21,01,36,15.40
2013,08,21,01,37,15.40
2013,08,21,01,38,15.30
2013,08,21,01,39,15.10
2013,08,21,01,40,15.00
2013,08,21,01,41,15.00
2013,08,21,01,42,15.00
2013,08,21,01,43,14.90
2013,08,21,01,44,14.80
2013,08,21,01,45,14.80
2013,08,21,01,46,14.90
2013,08,21,01,47,15.00
2013,08,21,01,48,15.00
2013,08,21,01,49,15.00
2013,08,21,01,50,15.10
2013,08,21,01,51,15.30
2013,08,21,01,52,15.40
2013,08,21,01,53,15.60
2013,08,21,01,54,15.70
2013,08,21,01,55,15.90
2013,08,21,01,56,16.00
2013,08,21,01,57,16.20
2013,08,21,01,58,16.30
2013,08,21,01,59,16.40
2013,08,21,02,00,16.50
2013,08,21,02,01,16.50
2013,08,21,02,02,16.60
2013,08,21,02,03,16.60
2013,08,21,02,04,16.70
2013,08,21,02,05,16.70
2013,08,21,02,06,16.80
2013,08,21,02,07,16.80
2013,08,21,02,08,16.90
2013,08,21,02,09,17.10
2013,08,21,02,10,17.20
2013,08,21,02,11,17.30
2013,08,21,02,12,17.40
2013,08,21,02,13,17.50
2013,08,21,02,14,17.60
2013,08,21,02,15,17.60
2013,08,21,02,16,17.70
2013,08,21,02,17,17.70
2013,08,21,02,18,17.80
2013,08,21,02,19,17.80
2013,08,21,02,20,17.80
2013,08,21,02,21,17.80
2013,08,21,02,22,17.80
2013,08,21,02,23,17.90
2013,08,21,02,24,17.90
2013,08,21,02,25,17.90
2013,08,21,02,26,17.90
2013,08,21,02,27,17.90
2013,08,21,02,28,17.90
2013,08,21,02,29,17.90
2013,08,21,02,30,17.90
2013,08,21,02,31,17.90
2013,08,21,02,32,17.90
2013,08,21,02,33,17.90
2013,08,21,02,34,17.90
2013,08,21,02,35,17.90
2013,08,21,02,36,17.90
2013,08,21,02,37,17.90
2013,08,21,02,38,17.90
2013,08,21,02,39,17.90
2013,08,21,02,40,17.90
2013,08,21,02,41,17.90
2013,08,21,02,42,17.90
2013,08,21,02,43,17.90
2013,08,21,02,44,17.90
2013,08,21,02,45,17.90
2013,08,21,02,46,17.90
2013,08,21,02,47,17.90
2013,08,21,02,48,17.80
2013,08,21,02,49,17.80
2013,08,21,02,50,17.80
2013,08,21,02,51,17.80
2013,08,21,02,52,17.80
2013,08,21,02,53,17.80
2013,08,21,02,54,17.80
2013,08,21,02,55,17.80
2013,08,21,02,56,17.80
2013,08,21,02,57,17.80
2013,08,21,02,58,17.80
2013,08,21,02,59,17.80
2013,08,21,03,00,17.80
2013,08,21,03,01,17.70
2013,08,21,03,02,17.70
2013,08,21,03,03,17.70
2013,08,21,03,04,17.70
2013,08,21,03,05,17.70
2013,08,21,03,06,17.60
2013,08,21,03,07,17.60
2013,08,21,03,08,17.60
2013,08,21,03,09,17.50
2013,08,21,03,10,17.40
2013,08,21,03,11,17.40
2013,08,21,03,12,17.40
2013,08,21,03,13,17.30
2013,08,21,03,14,17.30
2013,08,21,03,15,17.30
2013,08,21,03,16,17.20
2013,08,21,03,17,17.20
2013,08,21,03,18,17.10
2013,08,21,03,19,17.10
2013,08,21,03,20,17.00
2013,08,21,03,21,17.00
2013,08,21,03,22,16.90
2013,08,21,03,23,16.90
2013,08,21,03,24,16.80
2013,08,21,03,25,16.80
2013,08,21,03,26,16.70
2013,08,21,03,27,16.70
2013,08,21,03,28,16.70
2013,08,21,03,29,16.60
2013,08,21,03,30,16.60
2013,08,21,03,31,16.60
2013,08,21,03,32,16.50
2013,08,21,03,33,16.50
2013,08,21,03,34,16.40
2013,08,21,03,35,16.40
2013,08,21,03,36,16.30
2013,08,21,03,37,16.30
2013,08,21,03,38,16.40
2013,08,21,03,39,16.40
2013,08,21,03,40,16.40
2013,08,21,03,41,16.50
2013,08,21,03,42,16.60
2013,08,21,03,43,16.70
2013,08,21,03,44,16.80
2013,08,21,03,45,16.90
2013,08,21,03,46,17.00
2013,08,21,03,47,17.10
2013,08,21,03,48,17.10
2013,08,21,03,49,17.20
2013,08,21,03,50,17.20
2013,08,21,03,51,17.20
2013,08,21,03,52,17.20
2013,08,21,03,53,17.20
2013,08,21,03,54,17.10
2013,08,21,03,55,17.10
2013,08,21,03,56,17.00
2013,08,21,03,57,17.00
2013,08,21,03,58,16.90
2013,08,21,03,59,16.80
2013,08,21,04,00,16.80
2013,08,21,04,01,16.80
2013,08,21,04,02,16.90
2013,08,21,04,03,17.00
2013,08,21,04,04,17.00
2013,08,21,04,05,17.10
2013,08,21,04,06,17.20
2013,08,21,04,07,17.10
2013,08,21,04,08,17.00
2013,08,21,04,09,16.90
2013,08,21,04,10,16.80
2013,08,21,04,11,16.70
2013,08,21,04,12,16.60
2013,08,21,04,13,16.40
2013,08,21,04,14,16.20
2013,08,21,04,15,16.10
2013,08,21,04,16,15.90
2013,08,21,04,17,15.80
2013,08,21,04,18,15.70
2013,08,21,04,19,15.60
2013,08,21,04,20,15.50
2013,08,21,04,21,15.50
2013,08,21,04,22,15.40
2013,08,21,04,23,15.30
2013,08,21,04,24,15.30
2013,08,21,04,25,15.20
2013,08,21,04,26,15.20
2013,08,21,04,27,15.10
2013,08,21,04,28,15.10
2013,08,21,04,29,15.10
2013,08,21,04,30,15.00
2013,08,21,04,31,15.00
2013,08,21,04,32,15.00
2013,08,21,04,33,15.10
2013,08,21,04,34,15.10
2013,08,21,04,35,15.10
2013,08,21,04,36,15.20
2013,08,21,04,37,15.20
2013,08,21,04,38,15.20
2013,08,21,04,39,15.20
2013,08,21,04,40,15.20
2013,08,21,04,41,15.30
2013,08,21,04,42,15.30
2013,08,21,04,43,15.30
2013,08,21,04,44,15.40
2013,08,21,04,45,15.40
2013,08,21,04,46,15.50
2013,08,21,04,47,15.60
2013,08,21,04,48,15.60
2013,08,21,04,49,15.70
2013,08,21,04,50,15.70
2013,08,21,04,51,15.80
2013,08,21,04,52,15.80
2013,08,21,04,53,15.80
2013,08,21,04,54,15.80
2013,08,21,04,55,15.80
2013,08,21,04,56,15.80
2013,08,21,04,57,15.80
2013,08,21,04,58,15.70
2013,08,21,04,59,15.60
2013,08,21,05,00,15.50
2013,08,21,05,01,15.30
2013,08,21,05,02,15.20
2013,08,21,05,03,15.10
2013,08,21,05,04,15.00
2013,08,21,05,05,15.00
2013,08,21,05,06,14.90
2013,08,21,05,07,14.80
2013,08,21,05,08,14.60
2013,08,21,05,09,14.50
2013,08,21,05,10,14.40
2013,08,21,05,11,14.20
2013,08,21,05,12,14.10
2013,08,21,05,13,14.00
2013,08,21,05,14,13.90
2013,08,21,05,15,13.70
2013,08,21,05,16,13.60
2013,08,21,05,17,13.50
2013,08,21,05,18,13.50
2013,08,21,05,19,13.40
2013,08,21,05,20,13.30
2013,08,21,05,21,13.30
2013,08,21,05,22,13.30
2013,08,21,05,23,13.20
2013,08,21,05,24,13.20
2013,08,21,05,25,13.20
2013,08,21,05,26,13.20
2013,08,21,05,27,13.20
2013,08,21,05,28,13.20
2013,08,21,05,29,13.20
2013,08,21,05,30,13.20
2013,08,21,05,31,13.30
2013,08,21,05,32,13.30
2013,08,21,05,33,13.30
2013,08,21,05,34,13.30
2013,08,21,05,35,13.40
2013,08,21,05,36,13.40
2013,08,21,05,37,13.40
2013,08,21,05,38,13.40
2013,08,21,05,39,13.40
2013,08,21,05,40,13.40
2013,08,21,05,41,13.40
2013,08,21,05,42,13.40
2013,08,21,05,43,13.40
2013,08,21,05,44,13.40
2013,08,21,05,45,13.30
2013,08,21,05,46,13.30
2013,08,21,05,47,13.30
2013,08,21,05,48,13.20
2013,08,21,05,49,13.10
2013,08,21,05,50,13.10
2013,08,21,05,51,13.00
2013,08,21,05,52,12.90
2013,08,21,05,53,12.80
2013,08,21,05,54,12.80
2013,08,21,05,55,12.70
2013,08,21,05,56,12.70
2013,08,21,05,57,12.70
2013,08,21,05,58,12.70
2013,08,21,05,59,12.70
2013,08,21,06,00,12.70
2013,08,21,06,01,12.70
2013,08,21,06,02,12.70
2013,08,21,06,03,12.80
2013,08,21,06,04,12.70
2013,08,21,06,05,12.70
2013,08,21,06,06,12.70
2013,08,21,06,07,12.70
2013,08,21,06,08,12.70
2013,08,21,06,09,12.60
2013,08,21,06,10,12.60
2013,08,21,06,11,12.60
2013,08,21,06,12,12.50
2013,08,21,06,13,12.50
2013,08,21,06,14,12.50
2013,08,21,06,15,12.50
2013,08,21,06,16,12.40
2013,08,21,06,17,12.40
2013,08,21,06,18,12.40
2013,08,21,06,19,12.40
2013,08,21,06,20,12.40
2013,08,21,06,21,12.40
2013,08,21,06,22,12.40
2013,08,21,06,23,12.40
2013,08,21,06,24,12.40
2013,08,21,06,25,12.40
2013,08,21,06,26,12.40
2013,08,21,06,27,12.40
2013,08,21,06,28,12.40
2013,08,21,06,29,12.50
2013,08,21,06,30,12.50
2013,08,21,06,31,12.50
2013,08,21,06,32,12.50
2013,08,21,06,33,12.50
2013,08,21,06,34,12.50
2013,08,21,06,35,12.50
2013,08,21,06,36,12.50
2013,08,21,06,37,12.50
2013,08,21,06,38,12.50
2013,08,21,06,39,12.50
2013,08,21,06,40,12.50
2013,08,21,06,41,12.50
2013,08,21,06,42,12.50
2013,08,21,06,43,12.50
2013,08,21,06,44,12.50
2013,08,21,06,45,12.60
2013,08,21,06,46,12.60
2013,08,21,06,47,12.60
2013,08,21,06,48,12.70
2013,08,21,06,49,12.70
2013,08,21,06,50,12.80
2013,08,21,06,51,12.80
2013,08,21,06,52,12.90
2013,08,21,06,53,13.00
2013,08,21,06,54,13.10
2013,08,21,06,55,13.10
2013,08,21,06,56,13.20
2013,08,21,06,57,13.30
2013,08,21,06,58,13.40
2013,08,21,06,59,13.50
2013,08,21,07,00,13.50
2013,08,21,07,01,13.60
2013,08,21,07,02,13.70
2013,08,21,07,03,13.70
2013,08,21,07,04,13.80
2013,08,21,07,05,13.80
2013,08,21,07,06,13.80
2013,08,21,07,07,13.90
2013,08,21,07,08,13.90
2013,08,21,07,09,13.90
2013,08,21,07,10,13.90
2013,08,21,07,11,13.90
2013,08,21,07,12,13.90
2013,08,21,07,13,13.90
2013,08,21,07,14,13.90
2013,08,21,07,15,13.90
2013,08,21,07,16,14.00
2013,08,21,07,17,14.00
2013,08,21,07,18,14.00
2013,08,21,07,19,14.00
2013,08,21,07,20,14.00
2013,08,21,07,21,14.00
2013,08,21,07,22,14.10
2013,08,21,07,23,14.10
2013,08,21,07,24,14.10
2013,08,21,07,25,14.20
2013,08,21,07,26,14.20
2013,08,21,07,27,14.30
2013,08,21,07,28,14.40
2013,08,21,07,29,14.40
2013,08,21,07,30,14.50
2013,08,21,07,31,14.60
2013,08,21,07,32,14.60
2013,08,21,07,33,14.70
2013,08,21,07,34,14.80
2013,08,21,07,35,14.80
2013,08,21,07,36,14.90
2013,08,21,07,37,14.90
2013,08,21,07,38,15.00
2013,08,21,07,39,15.00
2013,08,21,07,40,15.00
2013,08,21,07,41,15.00
2013,08,21,07,42,15.00
2013,08,21,07,43,15.00
2013,08,21,07,44,15.00
2013,08,21,07,45,15.00
2013,08,21,07,46,15.00
2013,08,21,07,47,15.00
2013,08,21,07,48,15.00
2013,08,21,07,49,15.00
2013,08,21,07,50,15.00
2013,08,21,07,51,15.10
2013,08,21,07,52,15.20
2013,08,21,07,53,15.20
2013,08,21,07,54,15.30
2013,08,21,07,55,15.30
2013,08,21,07,56,15.40
2013,08,21,07,57,15.50
2013,08,21,07,58,15.50
2013,08,21,07,59,15.60
2013,08,21,08,00,15.60
2013,08,21,08,01,15.70
2013,08,21,08,02,15.70
2013,08,21,08,03,15.80
2013,08,21,08,04,15.80
2013,08,21,08,05,15.80
2013,08,21,08,06,15.80
2013,08,21,08,07,15.90
2013,08,21,08,08,15.90
2013,08,21,08,09,15.90
2013,08,21,08,10,15.90
2013,08,21,08,11,15.90
2013,08,21,08,12,15.90
2013,08,21,08,13,15.90
2013,08,21,08,14,15.90
2013,08,21,08,15,15.90
2013,08,21,08,16,15.90
2013,08,21,08,17,15.90
2013,08,21,08,18,15.90
2013,08,21,08,19,15.90
2013,08,21,08,20,15.90
2013,08,21,08,21,15.90
2013,08,21,08,22,15.90
2013,08,21,08,23,15.90
2013,08,21,08,24,16.00
2013,08,21,08,25,16.00
2013,08,21,08,26,16.00
2013,08,21,08,27,16.10
2013,08,21,08,28,16.10
2013,08,21,08,29,16.20
2013,08,21,08,30,16.30
2013,08,21,08,31,16.30
2013,08,21,08,32,16.40
2013,08,21,08,33,16.50
2013,08,21,08,34,16.70
2013,08,21,08,35,16.80
2013,08,21,08,36,16.90
2013,08,21,08,37,17.00
2013,08,21,08,38,17.10
2013,08,21,08,39,17.10
2013,08,21,08,40,17.20
2013,08,21,08,41,17.30
2013,08,21,08,42,17.30
2013,08,21,08,43,17.40
2013,08,21,08,44,17.40
2013,08,21,08,45,17.50
2013,08,21,08,46,17.60
2013,08,21,08,47,17.70
2013,08,21,08,48,17.70
2013,08,21,08,49,17.70
2013,08,21,08,50,17.80
2013,08,21,08,51,17.80
2013,08,21,08,52,17.90
2013,08,21,08,53,17.90
2013,08,21,08,54,18.00
2013,08,21,08,55,18.10
2013,08,21,08,56,18.10
2013,08,21,08,57,18.20
2013,08,21,08,58,18.20
2013,08,21,08,59,18.30
2013,08,21,09,00,18.30
2013,08,21,09,01,18.40
2013,08,21,09,02,18.50
2013,08,21,09,03,18.50
2013,08,21,09,04,18.60
2013,08,21,09,05,18.70
2013,08,21,09,06,18.70
2013,08,21,09,07,18.80
2013,08,21,09,08,18.80
2013,08,21,09,09,18.90
2013,08,21,09,10,18.90
2013,08,21,09,11,19.00
2013,08,21,09,12,19.10
2013,08,21,09,13,19.20
2013,08,21,09,14,19.20
2013,08,21,09,15,19.30
2013,08,21,09,16,19.30
2013,08,21,09,17,19.40
2013,08,21,09,18,19.50
2013,08,21,09,19,19.60
2013,08,21,09,20,19.60
2013,08,21,09,21,19.70
2013,08,21,09,22,19.80
2013,08,21,09,23,19.80
2013,08,21,09,24,19.90
2013,08,21,09,25,19.90
2013,08,21,09,26,20.00
2013,08,21,09,27,20.00
2013,08,21,09,28,20.00
2013,08,21,09,29,20.00
2013,08,21,09,30,20.00
2013,08,21,09,31,20.00
2013,08,21,09,32,20.10
2013,08,21,09,33,20.10
2013,08,21,09,34,20.20
2013,08,21,09,35,20.20
2013,08,21,09,36,20.30
2013,08,21,09,37,20.30
2013,08,21,09,38,20.40
2013,08,21,09,39,20.40
2013,08,21,09,40,20.40
2013,08,21,09,41,20.50
2013,08,21,09,42,20.50
2013,08,21,09,43,20.60
2013,08,21,09,44,20.60
2013,08,21,09,45,20.60
2013,08,21,09,46,20.70
2013,08,21,09,47,20.70
2013,08,21,09,48,20.80
2013,08,21,09,49,20.80
2013,08,21,09,50,20.90
2013,08,21,09,51,20.90
2013,08,21,09,52,20.90
2013,08,21,09,53,20.90
2013,08,21,09,54,20.90
2013,08,21,09,55,20.90
2013,08,21,09,56,20.90
2013,08,21,09,57,20.90
2013,08,21,09,58,21.00
2013,08,21,09,59,21.10
2013,08,21,10,00,21.20
2013,08,21,10,01,21.20
2013,08,21,10,02,21.30
2013,08,21,10,03,21.30
2013,08,21,10,04,21.30
2013,08,21,10,05,21.40
2013,08,21,10,06,21.40
2013,08,21,10,07,21.50
2013,08,21,10,08,21.50
2013,08,21,10,09,21.60
2013,08,21,10,10,21.60
2013,08,21,10,11,21.70
2013,08,21,10,12,21.70
2013,08,21,10,13,21.70
2013,08,21,10,14,21.80
2013,08,21,10,15,21.80
2013,08,21,10,16,21.80
2013,08,21,10,17,21.80
2013,08,21,10,18,21.90
2013,08,21,10,19,22.00
2013,08,21,10,20,22.00
2013,08,21,10,21,22.10
2013,08,21,10,22,22.20
2013,08,21,10,23,22.30
2013,08,21,10,24,22.30
2013,08,21,10,25,22.40
2013,08,21,10,26,22.40
2013,08,21,10,27,22.40
2013,08,21,10,28,22.40
2013,08,21,10,29,22.30
2013,08,21,10,30,22.20
2013,08,21,10,31,22.10
2013,08,21,10,32,22.10
2013,08,21,10,33,22.10
2013,08,21,10,34,22.10
2013,08,21,10,35,22.10
2013,08,21,10,36,22.00
2013,08,21,10,37,22.10
2013,08,21,10,38,22.00
2013,08,21,10,39,21.80
2013,08,21,10,40,21.80
2013,08,21,10,41,21.70
2013,08,21,10,42,21.70
2013,08,21,10,43,21.70
2013,08,21,10,44,21.80
2013,08,21,10,45,21.80
2013,08,21,10,46,21.90
2013,08,21,10,47,22.00
2013,08,21,10,48,22.20
2013,08,21,10,49,22.30
2013,08,21,10,50,22.40
2013,08,21,10,51,22.50
2013,08,21,10,52,22.60
2013,08,21,10,53,22.70
2013,08,21,10,54,22.80
2013,08,21,10,55,22.80
2013,08,21,10,56,22.90
2013,08,21,10,57,22.90
2013,08,21,10,58,22.90
2013,08,21,10,59,22.90
2013,08,21,11,00,22.70
2013,08,21,11,01,22.70
2013,08,21,11,02,22.50
2013,08,21,11,03,22.40
2013,08,21,11,04,22.30
2013,08,21,11,05,22.20
2013,08,21,11,06,22.20
2013,08,21,11,07,22.10
2013,08,21,11,08,22.00
2013,08,21,11,09,22.00
2013,08,21,11,10,22.00
2013,08,21,11,11,21.90
2013,08,21,11,12,21.90
2013,08,21,11,13,22.00
2013,08,21,11,14,22.10
2013,08,21,11,15,22.20
2013,08,21,11,16,22.30
2013,08,21,11,17,22.40
2013,08,21,11,18,22.50
2013,08,21,11,19,22.60
2013,08,21,11,20,22.70
2013,08,21,11,21,22.70
2013,08,21,11,22,22.60
2013,08,21,11,23,22.50
2013,08,21,11,24,22.50
2013,08,21,11,25,22.40
2013,08,21,11,26,22.40
2013,08,21,11,27,22.30
2013,08,21,11,28,22.40
2013,08,21,11,29,22.50
2013,08,21,11,30,22.50
2013,08,21,11,31,22.60
2013,08,21,11,32,22.70
2013,08,21,11,33,22.80
2013,08,21,11,34,22.80
2013,08,21,11,35,22.90
2013,08,21,11,36,23.00
2013,08,21,11,37,23.00
2013,08,21,11,38,23.10
2013,08,21,11,39,23.10
2013,08,21,11,40,23.20
2013,08,21,11,41,23.30
2013,08,21,11,42,23.30
2013,08,21,11,43,23.40
2013,08,21,11,44,23.40
2013,08,21,11,45,23.40
2013,08,21,11,46,23.40
2013,08,21,11,47,23.40
2013,08,21,11,48,23.50
2013,08,21,11,49,23.60
2013,08,21,11,50,23.60
2013,08,21,11,51,23.60
2013,08,21,11,52,23.60
2013,08,21,11,53,23.50
2013,08,21,11,54,23.50
2013,08,21,11,55,23.40
2013,08,21,11,56,23.40
2013,08,21,11,57,23.40
2013,08,21,11,58,23.40
2013,08,21,11,59,23.40
2013,08,21,12,00,23.30
2013,08,21,12,01,23.30
2013,08,21,12,02,23.30
2013,08,21,12,03,23.30
2013,08,21,12,04,23.20
2013,08,21,12,05,23.10
2013,08,21,12,06,23.10
2013,08,21,12,07,23.10
2013,08,21,12,08,23.10
2013,08,21,12,09,23.10
2013,08,21,12,10,23.10
2013,08,21,12,11,23.20
2013,08,21,12,12,23.20
2013,08,21,12,13,23.20
2013,08,21,12,14,23.20
2013,08,21,12,15,23.20
2013,08,21,12,16,23.10
2013,08,21,12,17,23.10
2013,08,21,12,18,23.10
2013,08,21,12,19,23.00
2013,08,21,12,20,23.00
2013,08,21,12,21,22.90
2013,08,21,12,22,23.00
2013,08,21,12,23,23.00
2013,08,21,12,24,23.20
2013,08,21,12,25,23.30
2013,08,21,12,26,23.40
2013,08,21,12,27,23.50
2013,08,21,12,28,23.50
2013,08,21,12,29,23.60
2013,08,21,12,30,23.60
2013,08,21,12,31,23.70
2013,08,21,12,32,23.70
2013,08,21,12,33,23.60
2013,08,21,12,34,23.60
2013,08,21,12,35,23.60
2013,08,21,12,36,23.60
2013,08,21,12,37,23.70
2013,08,21,12,38,23.60
2013,08,21,12,39,23.70
2013,08,21,12,40,23.80
2013,08,21,12,41,23.80
2013,08,21,12,42,23.80
2013,08,21,12,43,23.90
2013,08,21,12,44,24.00
2013,08,21,12,45,24.00
2013,08,21,12,46,24.10
2013,08,21,12,47,24.00
2013,08,21,12,48,24.00
2013,08,21,12,49,24.00
2013,08,21,12,50,24.10
2013,08,21,12,51,24.10
2013,08,21,12,52,24.10
2013,08,21,12,53,24.20
2013,08,21,12,54,24.30
2013,08,21,12,55,24.30
2013,08,21,12,56,24.40
2013,08,21,12,57,24.60
2013,08,21,12,58,24.70
2013,08,21,12,59,24.70
2013,08,21,13,00,24.80
2013,08,21,13,01,24.80
2013,08,21,13,02,24.80
2013,08,21,13,03,24.80
2013,08,21,13,04,24.80
2013,08,21,13,05,24.90
2013,08,21,13,06,24.90
2013,08,21,13,07,24.90
2013,08,21,13,08,24.90
2013,08,21,13,09,24.90
2013,08,21,13,10,24.90
2013,08,21,13,11,24.90
2013,08,21,13,12,24.90
2013,08,21,13,13,24.90
2013,08,21,13,14,24.90
2013,08,21,13,15,24.90
2013,08,21,13,16,24.90
2013,08,21,13,17,24.80
2013,08,21,13,18,24.90
2013,08,21,13,19,24.90
2013,08,21,13,20,24.90
2013,08,21,13,21,25.00
2013,08,21,13,22,25.00
2013,08,21,13,23,25.10
2013,08,21,13,24,25.10
2013,08,21,13,25,25.10
2013,08,21,13,26,25.00
2013,08,21,13,27,25.00
2013,08,21,13,28,24.90
2013,08,21,13,29,24.90
2013,08,21,13,30,24.90
2013,08,21,13,31,24.90
2013,08,21,13,32,24.80
2013,08,21,13,33,24.80
2013,08,21,13,34,24.80
2013,08,21,13,35,24.90
2013,08,21,13,36,24.90
2013,08,21,13,37,24.90
2013,08,21,13,38,24.80
2013,08,21,13,39,24.70
2013,08,21,13,40,24.70
2013,08,21,13,41,24.70
2013,08,21,13,42,24.80
2013,08,21,13,43,24.90
2013,08,21,13,44,25.00
2013,08,21,13,45,25.10
2013,08,21,13,46,25.20
2013,08,21,13,47,25.40
2013,08,21,13,48,25.50
2013,08,21,13,49,25.60
2013,08,21,13,50,25.60
2013,08,21,13,51,25.70
2013,08,21,13,52,25.80
2013,08,21,13,53,25.70
2013,08,21,13,54,25.60
2013,08,21,13,55,25.50
2013,08,21,13,56,25.30
2013,08,21,13,57,25.20
2013,08,21,13,58,25.10
2013,08,21,13,59,25.10
2013,08,21,14,00,25.10
2013,08,21,14,01,25.10
2013,08,21,14,02,25.20
2013,08,21,14,03,25.30
2013,08,21,14,04,25.40
2013,08,21,14,05,25.50
2013,08,21,14,06,25.60
2013,08,21,14,07,25.60
2013,08,21,14,08,25.70
2013,08,21,14,09,25.70
2013,08,21,14,10,25.70
2013,08,21,14,11,25.70
2013,08,21,14,12,25.70
2013,08,21,14,13,25.70
2013,08,21,14,14,25.70
2013,08,21,14,15,25.70
2013,08,21,14,16,25.70
2013,08,21,14,17,25.70
2013,08,21,14,18,25.60
2013,08,21,14,19,25.50
2013,08,21,14,20,25.40
2013,08,21,14,21,25.30
2013,08,21,14,22,25.30
2013,08,21,14,23,25.30
2013,08,21,14,24,25.30
2013,08,21,14,25,25.40
2013,08,21,14,26,25.50
2013,08,21,14,27,25.60
2013,08,21,14,28,25.70
2013,08,21,14,29,25.60
2013,08,21,14,30,25.50
2013,08,21,14,31,25.50
2013,08,21,14,32,25.40
2013,08,21,14,33,25.40
2013,08,21,14,34,25.40
2013,08,21,14,35,25.40
2013,08,21,14,36,25.40
2013,08,21,14,37,25.30
2013,08,21,14,38,25.40
2013,08,21,14,39,25.40
2013,08,21,14,40,25.50
2013,08,21,14,41,25.60
2013,08,21,14,42,25.60
2013,08,21,14,43,25.70
2013,08,21,14,44,25.60
2013,08,21,14,45,25.70
2013,08,21,14,46,25.60
2013,08,21,14,47,25.60
2013,08,21,14,48,25.60
2013,08,21,14,49,25.70
2013,08,21,14,50,25.80
2013,08,21,14,51,25.80
2013,08,21,14,52,25.70
2013,08,21,14,53,25.50
2013,08,21,14,54,25.50
2013,08,21,14,55,25.40
2013,08,21,14,56,25.40
2013,08,21,14,57,25.40
2013,08,21,14,58,25.40
2013,08,21,14,59,25.50
2013,08,21,15,00,25.50
2013,08,21,15,01,25.50
2013,08,21,15,02,25.60
2013,08,21,15,03,25.60
2013,08,21,15,04,25.60
2013,08,21,15,05,25.70
2013,08,21,15,06,25.80
2013,08,21,15,07,25.80
2013,08,21,15,08,25.80
2013,08,21,15,09,25.70
2013,08,21,15,10,25.70
2013,08,21,15,11,25.60
2013,08,21,15,12,25.60
2013,08,21,15,13,25.70
2013,08,21,15,14,25.70
2013,08,21,15,15,25.80
2013,08,21,15,16,25.90
2013,08,21,15,17,25.90
2013,08,21,15,18,26.00
2013,08,21,15,19,26.00
2013,08,21,15,20,26.00
2013,08,21,15,21,25.90
2013,08,21,15,22,25.90
2013,08,21,15,23,25.90
2013,08,21,15,24,25.90
2013,08,21,15,25,25.90
2013,08,21,15,26,25.90
2013,08,21,15,27,25.90
2013,08,21,15,28,25.90
2013,08,21,15,29,25.90
2013,08,21,15,30,25.90
2013,08,21,15,31,25.90
2013,08,21,15,32,25.90
2013,08,21,15,33,26.00
2013,08,21,15,34,26.00
2013,08,21,15,35,26.00
2013,08,21,15,36,26.00
2013,08,21,15,37,26.10
2013,08,21,15,38,26.00
2013,08,21,15,39,26.00
2013,08,21,15,40,26.00
2013,08,21,15,41,26.00
2013,08,21,15,42,26.10
2013,08,21,15,43,26.10
2013,08,21,15,44,26.10
2013,08,21,15,45,26.10
2013,08,21,15,46,26.20
2013,08,21,15,47,26.30
2013,08,21,15,48,26.30
2013,08,21,15,49,26.30
2013,08,21,15,50,26.30
2013,08,21,15,51,26.30
2013,08,21,15,52,26.40
2013,08,21,15,53,26.40
2013,08,21,15,54,26.40
2013,08,21,15,55,26.50
2013,08,21,15,56,26.50
2013,08,21,15,57,26.50
2013,08,21,15,58,26.50
2013,08,21,15,59,26.60
2013,08,21,16,00,26.60
2013,08,21,16,01,26.60
2013,08,21,16,02,26.60
2013,08,21,16,03,26.60
2013,08,21,16,04,26.60
2013,08,21,16,05,26.50
2013,08,21,16,06,26.50
2013,08,21,16,07,26.40
2013,08,21,16,08,26.40
2013,08,21,16,09,26.50
2013,08,21,16,10,26.50
2013,08,21,16,11,26.60
2013,08,21,16,12,26.70
2013,08,21,16,13,26.70
2013,08,21,16,14,26.70
2013,08,21,16,15,26.70
2013,08,21,16,16,26.60
2013,08,21,16,17,26.60
2013,08,21,16,18,26.60
2013,08,21,16,19,26.70
2013,08,21,16,20,26.80
2013,08,21,16,21,26.90
2013,08,21,16,22,27.00
2013,08,21,16,23,27.10
2013,08,21,16,24,27.10
2013,08,21,16,25,27.20
2013,08,21,16,26,27.20
2013,08,21,16,27,27.20
2013,08,21,16,28,27.20
2013,08,21,16,29,27.20
2013,08,21,16,30,27.10
2013,08,21,16,31,27.10
2013,08,21,16,32,27.00
2013,08,21,16,33,27.00
2013,08,21,16,34,27.00
2013,08,21,16,35,27.00
2013,08,21,16,36,27.00
2013,08,21,16,37,26.90
2013,08,21,16,38,26.90
2013,08,21,16,39,26.90
2013,08,21,16,40,26.80
2013,08,21,16,41,26.80
2013,08,21,16,42,26.80
2013,08,21,16,43,26.80
2013,08,21,16,44,26.80
2013,08,21,16,45,26.90
2013,08,21,16,46,26.90
2013,08,21,16,47,26.90
2013,08,21,16,48,26.90
2013,08,21,16,49,26.90
2013,08,21,16,50,26.90
2013,08,21,16,51,26.90
2013,08,21,16,52,26.90
2013,08,21,16,53,27.00
2013,08,21,16,54,27.00
2013,08,21,16,55,27.00
2013,08,21,16,56,27.00
2013,08,21,16,57,27.00
2013,08,21,16,58,27.00
2013,08,21,16,59,27.10
2013,08,21,17,00,27.10
2013,08,21,17,01,27.10
2013,08,21,17,02,27.10
2013,08,21,17,03,27.10
2013,08,21,17,04,27.00
2013,08,21,17,05,27.00
2013,08,21,17,06,26.90
2013,08,21,17,07,26.90
2013,08,21,17,08,26.90
2013,08,21,17,09,26.90
2013,08,21,17,10,26.90
2013,08,21,17,11,27.00
2013,08,21,17,12,26.90
2013,08,21,17,13,27.00
2013,08,21,17,14,27.00
2013,08,21,17,15,27.00
2013,08,21,17,16,27.00
2013,08,21,17,17,27.00
2013,08,21,17,18,27.10
2013,08,21,17,19,27.10